ACA459 CYUL-CYHZ

Flight info

Callsign ACA459
Flight time 1h 11m
Altitude 37000
Route DCT SUXET DCT NOVUN DCT ESRAM DCT RABIK Q951 ANTOV DCT EBONY FUNDY5
Aircraft B777/M-V/N

Departure

Time 2026-05-05 00:32
Airport Montreal / Pierre Elliott Trudeau International Airport (CYUL)

Arrival

Time 2026-05-05 01:44
Airport Halifax / Stanfield International Airport (CYHZ)
Time Latitude Longitude Altitude Speed Heading
2026-05-05 00:10 45.46735 -73.73478 111 ft 1 kts 133°
2026-05-05 00:11 45.46736 -73.73480 111 ft 0 kts 133°
2026-05-05 00:22 45.46743 -73.73490 110 ft 3 kts 133°
2026-05-05 00:22 45.46758 -73.73506 108 ft 3 kts 181°
2026-05-05 00:22 45.46771 -73.73501 108 ft 0 kts 224°
2026-05-05 00:25 45.46769 -73.73503 110 ft 4 kts 224°
2026-05-05 00:26 45.46731 -73.73544 110 ft 9 kts 203°
2026-05-05 00:26 45.46646 -73.73552 115 ft 11 kts 168°
2026-05-05 00:26 45.46586 -73.73529 114 ft 7 kts 111°
2026-05-05 00:26 45.46610 -73.73490 112 ft 5 kts 30°
2026-05-05 00:27 45.46654 -73.73390 112 ft 19 kts 53°
2026-05-05 00:27 45.46767 -73.73240 111 ft 24 kts 44°
2026-05-05 00:27 45.46891 -73.73074 114 ft 25 kts 43°
2026-05-05 00:27 45.47019 -73.72903 117 ft 26 kts 41°
2026-05-05 00:28 45.47091 -73.72811 116 ft 0 kts 42°
2026-05-05 00:29 45.47101 -73.72797 115 ft 4 kts 42°
2026-05-05 00:29 45.47183 -73.72688 117 ft 25 kts 44°
2026-05-05 00:29 45.47326 -73.72505 114 ft 28 kts 42°
2026-05-05 00:29 45.47472 -73.72307 113 ft 29 kts 43°
2026-05-05 00:30 45.47617 -73.72122 113 ft 27 kts 42°
2026-05-05 00:30 45.47752 -73.71944 117 ft 26 kts 41°
2026-05-05 00:30 45.47783 -73.71758 110 ft 22 kts 129°
2026-05-05 00:30 45.47774 -73.71743 112 ft 0 kts 133°
2026-05-05 00:31 45.47770 -73.71739 112 ft 4 kts 133°
2026-05-05 00:31 45.47722 -73.71669 112 ft 8 kts 136°
2026-05-05 00:31 45.47638 -73.71687 113 ft 17 kts 223°
2026-05-05 00:32 45.47421 -73.71971 112 ft 82 kts 223°
2026-05-05 00:32 45.46800 -73.72779 113 ft 159 kts 221°
2026-05-05 00:32 45.45858 -73.74044 452 ft 203 kts 225°
2026-05-05 00:32 45.44883 -73.75554 1378 ft 209 kts 228°
2026-05-05 00:33 45.43930 -73.77141 2355 ft 211 kts 231°
2026-05-05 00:33 45.43029 -73.78781 3336 ft 212 kts 238°
2026-05-05 00:33 45.42415 -73.80661 4357 ft 206 kts 243°
2026-05-05 00:33 45.41507 -73.82190 4853 ft 203 kts 220°
2026-05-05 00:34 45.40181 -73.82915 4652 ft 213 kts 194°
2026-05-05 00:34 45.38664 -73.82673 4395 ft 229 kts 167°
2026-05-05 00:34 45.37291 -73.81488 4295 ft 235 kts 148°
2026-05-05 00:34 45.36218 -73.79652 3988 ft 251 kts 126°
2026-05-05 00:35 45.35542 -73.77296 3961 ft 264 kts 115°
2026-05-05 00:35 45.35136 -73.75612 4056 ft 281 kts 110°
2026-05-05 00:35 45.34699 -73.72803 4471 ft 297 kts 105°
2026-05-05 00:35 45.34283 -73.69893 5135 ft 302 kts 105°
2026-05-05 00:36 45.33865 -73.66969 5941 ft 303 kts 102°
2026-05-05 00:36 45.33739 -73.63959 6703 ft 305 kts 98°
2026-05-05 00:36 45.33422 -73.60982 7484 ft 305 kts 107°
2026-05-05 00:36 45.32822 -73.58103 8286 ft 304 kts 115°
2026-05-05 00:37 45.31952 -73.55379 9092 ft 302 kts 123°
2026-05-05 00:37 45.30830 -73.52858 9870 ft 302 kts 132°
2026-05-05 00:37 45.29478 -73.50589 10614 ft 300 kts 141°
2026-05-05 00:37 45.27970 -73.48504 11221 ft 311 kts 138°
2026-05-05 00:38 45.26872 -73.45668 11378 ft 349 kts 106°
2026-05-05 00:38 45.26793 -73.42199 11802 ft 365 kts 82°
2026-05-05 00:38 45.27053 -73.38582 12481 ft 372 kts 91°
2026-05-05 00:38 45.26766 -73.34931 13259 ft 374 kts 105°
2026-05-05 00:39 45.25955 -73.31360 14006 ft 376 kts 116°
2026-05-05 00:39 45.24852 -73.28032 14698 ft 380 kts 121°
2026-05-05 00:39 45.23600 -73.24709 15417 ft 384 kts 122°
2026-05-05 00:39 45.22317 -73.21356 16135 ft 389 kts 122°
2026-05-05 00:40 45.21212 -73.17807 16837 ft 398 kts 109°
2026-05-05 00:40 45.20617 -73.13943 17550 ft 405 kts 97°
2026-05-05 00:40 45.20540 -73.09931 18239 ft 410 kts 87°
2026-05-05 00:40 45.20681 -73.05882 18888 ft 413 kts 86°
2026-05-05 00:41 45.20973 -73.01830 19539 ft 414 kts 77°
2026-05-05 00:41 45.21716 -72.97891 20218 ft 414 kts 68°
2026-05-05 00:41 45.22873 -72.94168 20898 ft 412 kts 57°
2026-05-05 00:41 45.24312 -72.90655 21568 ft 413 kts 55°
2026-05-05 00:42 45.25778 -72.87133 22203 ft 416 kts 55°
2026-05-05 00:42 45.27232 -72.83563 22829 ft 420 kts 56°
2026-05-05 00:42 45.28505 -72.79800 23413 ft 428 kts 66°
2026-05-05 00:42 45.29307 -72.75701 23924 ft 435 kts 76°
2026-05-05 00:43 45.29614 -72.71394 24400 ft 441 kts 85°
2026-05-05 00:43 45.29722 -72.67024 24888 ft 445 kts 85°
2026-05-05 00:43 45.29846 -72.62619 25374 ft 448 kts 84°
2026-05-05 00:43 45.30014 -72.58192 25839 ft 450 kts 83°
2026-05-05 00:44 45.30244 -72.53747 26317 ft 453 kts 82°
2026-05-05 00:44 45.30501 -72.49278 26793 ft 455 kts 82°
2026-05-05 00:44 45.30763 -72.44789 27253 ft 458 kts 82°
2026-05-05 00:44 45.31022 -72.40270 27694 ft 461 kts 82°
2026-05-05 00:45 45.31275 -72.35717 28126 ft 464 kts 82°
2026-05-05 00:45 45.31523 -72.31138 28553 ft 467 kts 82°
2026-05-05 00:45 45.31768 -72.26516 28787 ft 473 kts 82°
2026-05-05 00:46 45.32252 -72.17180 28758 ft 470 kts 82°
2026-05-05 00:46 45.32721 -72.07964 28770 ft 468 kts 82°
2026-05-05 00:47 45.33183 -71.98857 28769 ft 470 kts 82°
2026-05-05 00:47 45.33646 -71.89569 28771 ft 472 kts 82°
2026-05-05 00:48 45.34357 -71.80383 28762 ft 469 kts 76°
2026-05-05 00:48 45.35406 -71.71235 28758 ft 469 kts 76°
2026-05-05 00:49 45.36457 -71.62089 28759 ft 468 kts 76°
2026-05-05 00:49 45.37461 -71.52947 28763 ft 468 kts 76°
2026-05-05 00:50 45.38441 -71.43808 28775 ft 467 kts 76°
2026-05-05 00:50 45.39411 -71.34683 28772 ft 466 kts 76°
2026-05-05 00:51 45.40367 -71.25617 28763 ft 453 kts 76°
2026-05-05 00:51 45.40816 -71.21292 29248 ft 426 kts 76°
2026-05-05 00:51 45.41229 -71.17275 30002 ft 397 kts 75°
2026-05-05 00:51 45.41631 -71.13445 30711 ft 386 kts 74°
2026-05-05 00:52 45.42017 -71.09710 31382 ft 378 kts 74°
2026-05-05 00:52 45.42375 -71.06041 31979 ft 372 kts 74°
2026-05-05 00:52 45.42703 -71.02414 32521 ft 368 kts 74°
2026-05-05 00:52 45.42969 -70.98835 32484 ft 386 kts 81°
2026-05-05 00:53 45.42787 -70.94898 32366 ft 411 kts 94°
2026-05-05 00:53 45.42195 -70.90875 32594 ft 419 kts 99°
2026-05-05 00:53 45.41487 -70.86818 32738 ft 428 kts 99°
2026-05-05 00:54 45.40110 -70.78390 32901 ft 446 kts 97°
2026-05-05 00:54 45.38894 -70.69555 33038 ft 464 kts 95°
2026-05-05 00:55 45.37752 -70.60356 33175 ft 481 kts 94°
2026-05-05 00:55 45.36601 -70.50869 33503 ft 491 kts 95°
2026-05-05 00:55 45.36016 -70.46089 33843 ft 491 kts 94°
2026-05-05 00:56 45.35425 -70.41304 34134 ft 492 kts 95°
2026-05-05 00:56 45.34831 -70.36514 34401 ft 493 kts 95°
2026-05-05 00:56 45.34233 -70.31708 34627 ft 494 kts 96°
2026-05-05 00:56 45.33632 -70.26894 34896 ft 495 kts 96°
2026-05-05 00:57 45.33029 -70.22087 35218 ft 494 kts 96°
2026-05-05 00:57 45.32424 -70.17280 35474 ft 495 kts 96°
2026-05-05 00:57 45.31816 -70.12457 35676 ft 497 kts 97°
2026-05-05 00:57 45.31204 -70.07620 35885 ft 498 kts 97°
2026-05-05 00:58 45.30590 -70.02788 36192 ft 497 kts 97°
2026-05-05 00:58 45.29995 -69.98121 36534 ft 494 kts 98°
2026-05-05 00:58 45.29381 -69.93326 36875 ft 493 kts 98°
2026-05-05 00:59 45.28142 -69.83683 36913 ft 499 kts 98°
2026-05-05 00:59 45.26889 -69.74006 36903 ft 496 kts 98°
2026-05-05 01:00 45.25647 -69.64495 36912 ft 492 kts 98°
2026-05-05 01:00 45.24395 -69.54958 36916 ft 491 kts 98°
2026-05-05 01:01 45.23137 -69.45428 36905 ft 491 kts 99°
2026-05-05 01:01 45.21871 -69.35904 36908 ft 492 kts 99°
2026-05-05 01:02 45.20595 -69.26375 36913 ft 492 kts 99°
2026-05-05 01:02 45.19308 -69.16832 36912 ft 493 kts 99°
2026-05-05 01:03 45.18010 -69.07271 36909 ft 494 kts 99°
2026-05-05 01:03 45.16720 -68.97827 36908 ft 496 kts 99°
2026-05-05 01:04 45.15402 -68.88236 36923 ft 496 kts 99°
2026-05-05 01:04 45.13404 -68.73824 36914 ft 498 kts 99°
2026-05-05 01:05 45.12060 -68.64207 36920 ft 498 kts 99°
2026-05-05 01:05 45.10707 -68.54591 36926 ft 498 kts 100°
2026-05-05 01:06 45.09346 -68.44977 36928 ft 498 kts 100°
2026-05-05 01:06 45.07977 -68.35365 36924 ft 498 kts 100°
2026-05-05 01:07 45.06609 -68.25826 36929 ft 498 kts 100°
2026-05-05 01:07 45.05225 -68.16229 36929 ft 498 kts 100°
2026-05-05 01:08 45.03831 -68.06632 36924 ft 498 kts 100°
2026-05-05 01:08 45.02451 -67.97182 36918 ft 499 kts 101°
2026-05-05 01:09 45.01040 -67.87584 36923 ft 499 kts 101°
2026-05-05 01:09 44.99620 -67.77977 36922 ft 500 kts 101°
2026-05-05 01:10 44.98189 -67.68362 36927 ft 501 kts 101°
2026-05-05 01:10 44.96748 -67.58737 36925 ft 501 kts 101°
2026-05-05 01:11 44.95297 -67.49102 36927 ft 502 kts 101°
2026-05-05 01:11 44.93837 -67.39465 36932 ft 502 kts 101°
2026-05-05 01:12 44.92367 -67.29823 36951 ft 502 kts 102°
2026-05-05 01:12 44.91631 -67.25010 36948 ft 503 kts 102°
2026-05-05 01:13 44.90286 -67.15810 36945 ft 498 kts 97°
2026-05-05 01:13 44.90037 -67.11054 36729 ft 489 kts 89°
2026-05-05 01:13 44.90028 -67.06298 36392 ft 482 kts 87°
2026-05-05 01:14 44.90065 -67.01599 36017 ft 477 kts 86°
2026-05-05 01:14 44.90107 -66.97084 35657 ft 474 kts 86°
2026-05-05 01:14 44.90138 -66.92454 35284 ft 471 kts 86°
2026-05-05 01:14 44.90154 -66.87850 34893 ft 468 kts 86°
2026-05-05 01:15 44.90156 -66.83267 34483 ft 467 kts 86°
2026-05-05 01:15 44.90147 -66.78694 34079 ft 465 kts 86°
2026-05-05 01:15 44.90133 -66.74143 33654 ft 464 kts 85°
2026-05-05 01:15 44.90116 -66.69605 33225 ft 461 kts 85°
2026-05-05 01:16 44.90095 -66.65097 32824 ft 458 kts 85°
2026-05-05 01:16 44.90074 -66.60615 32431 ft 455 kts 85°
2026-05-05 01:16 44.90051 -66.56165 32052 ft 452 kts 84°
2026-05-05 01:16 44.90028 -66.51748 31680 ft 449 kts 84°
2026-05-05 01:17 44.90003 -66.47354 31313 ft 447 kts 84°
2026-05-05 01:17 44.89977 -66.42986 30975 ft 445 kts 84°
2026-05-05 01:17 44.89950 -66.38625 30579 ft 444 kts 83°
2026-05-05 01:17 44.89922 -66.34283 30215 ft 442 kts 83°
2026-05-05 01:18 44.89891 -66.29954 29827 ft 441 kts 82°
2026-05-05 01:18 44.89860 -66.25643 29413 ft 438 kts 82°
2026-05-05 01:18 44.89826 -66.21362 29009 ft 435 kts 82°
2026-05-05 01:18 44.89791 -66.17107 28625 ft 432 kts 83°
2026-05-05 01:19 44.89755 -66.12880 28242 ft 430 kts 83°
2026-05-05 01:19 44.89717 -66.08679 27868 ft 427 kts 83°
2026-05-05 01:19 44.89679 -66.04512 27500 ft 424 kts 83°
2026-05-05 01:19 44.89639 -66.00364 27144 ft 422 kts 83°
2026-05-05 01:20 44.89600 -65.96369 26786 ft 420 kts 83°
2026-05-05 01:20 44.89558 -65.92267 26423 ft 418 kts 84°
2026-05-05 01:20 44.89515 -65.88183 26059 ft 416 kts 84°
2026-05-05 01:20 44.89470 -65.84114 25699 ft 414 kts 84°
2026-05-05 01:21 44.89424 -65.80062 25335 ft 413 kts 84°
2026-05-05 01:21 44.89377 -65.76017 24955 ft 412 kts 84°
2026-05-05 01:21 44.89329 -65.71985 24589 ft 411 kts 85°
2026-05-05 01:21 44.89279 -65.67953 24218 ft 411 kts 85°
2026-05-05 01:22 44.89228 -65.63927 23817 ft 411 kts 85°
2026-05-05 01:22 44.89176 -65.59902 23449 ft 411 kts 86°
2026-05-05 01:22 44.89122 -65.55872 23022 ft 410 kts 86°
2026-05-05 01:22 44.89066 -65.51859 22640 ft 408 kts 86°
2026-05-05 01:23 44.89008 -65.47866 22327 ft 406 kts 86°
2026-05-05 01:23 44.88969 -65.45227 21997 ft 408 kts 86°
2026-05-05 01:23 44.88908 -65.41217 21546 ft 409 kts 86°
2026-05-05 01:23 44.88845 -65.37226 21233 ft 406 kts 87°
2026-05-05 01:24 44.88781 -65.33265 20936 ft 403 kts 87°
2026-05-05 01:24 44.88695 -65.28056 20507 ft 400 kts 87°
2026-05-05 01:24 44.88631 -65.24139 20091 ft 400 kts 88°
2026-05-05 01:24 44.88586 -65.21488 19860 ft 400 kts 88°
2026-05-05 01:25 44.88519 -65.17588 19562 ft 397 kts 88°
2026-05-05 01:25 44.88450 -65.13712 19269 ft 394 kts 88°
2026-05-05 01:25 44.88381 -65.09859 18962 ft 392 kts 88°
2026-05-05 01:25 44.88312 -65.06020 18647 ft 391 kts 89°
2026-05-05 01:26 44.88241 -65.02193 18326 ft 390 kts 88°
2026-05-05 01:26 44.88171 -64.98493 18015 ft 388 kts 89°
2026-05-05 01:26 44.88098 -64.94703 17698 ft 385 kts 89°
2026-05-05 01:26 44.88030 -64.90941 17392 ft 382 kts 87°
2026-05-05 01:27 44.88302 -64.87252 17043 ft 376 kts 73°
2026-05-05 01:27 44.88839 -64.83678 16790 ft 372 kts 73°
2026-05-05 01:27 44.89381 -64.80117 16518 ft 371 kts 73°
2026-05-05 01:27 44.89913 -64.76555 16256 ft 371 kts 74°
2026-05-05 01:28 44.90432 -64.72994 15995 ft 370 kts 74°
2026-05-05 01:28 44.90938 -64.69440 15738 ft 369 kts 74°
2026-05-05 01:28 44.91428 -64.65949 15490 ft 367 kts 75°
2026-05-05 01:28 44.91917 -64.62427 15233 ft 365 kts 75°
2026-05-05 01:29 44.92402 -64.58918 14986 ft 364 kts 75°
2026-05-05 01:29 44.92883 -64.55424 14733 ft 362 kts 75°
2026-05-05 01:29 44.93360 -64.51942 14487 ft 359 kts 75°
2026-05-05 01:29 44.93830 -64.48502 14263 ft 356 kts 75°
2026-05-05 01:30 44.94297 -64.45076 13962 ft 355 kts 75°
2026-05-05 01:30 44.94763 -64.41659 13613 ft 356 kts 75°
2026-05-05 01:30 44.95230 -64.38226 13231 ft 356 kts 76°
2026-05-05 01:30 44.95695 -64.34795 12868 ft 355 kts 76°
2026-05-05 01:31 44.96158 -64.31373 12505 ft 355 kts 76°
2026-05-05 01:31 44.96619 -64.27950 12145 ft 355 kts 76°
2026-05-05 01:31 44.97079 -64.24530 11763 ft 355 kts 76°
2026-05-05 01:31 44.97537 -64.21116 11420 ft 353 kts 76°
2026-05-05 01:32 44.97992 -64.17712 11066 ft 353 kts 77°
2026-05-05 01:32 44.98446 -64.14314 10710 ft 352 kts 77°
2026-05-05 01:32 44.98899 -64.10914 10371 ft 352 kts 77°
2026-05-05 01:32 44.99349 -64.07526 10097 ft 349 kts 77°
2026-05-05 01:33 44.99792 -64.04183 9917 ft 342 kts 77°
2026-05-05 01:33 45.00218 -64.00952 9870 ft 330 kts 77°
2026-05-05 01:33 45.00637 -63.97784 9216 ft 340 kts 77°
2026-05-05 01:33 45.01066 -63.94526 8770 ft 335 kts 77°
2026-05-05 01:34 45.01486 -63.91329 8431 ft 327 kts 77°
2026-05-05 01:34 45.01895 -63.88203 8100 ft 320 kts 77°
2026-05-05 01:34 45.02295 -63.85144 7777 ft 313 kts 78°
2026-05-05 01:34 45.02685 -63.82148 7468 ft 307 kts 77°
2026-05-05 01:35 45.03069 -63.79197 7133 ft 305 kts 77°
2026-05-05 01:35 45.03455 -63.76239 6798 ft 307 kts 77°
2026-05-05 01:35 45.03841 -63.73270 6496 ft 307 kts 78°
2026-05-05 01:35 45.04226 -63.70297 6198 ft 307 kts 78°
2026-05-05 01:36 45.04610 -63.67330 5888 ft 307 kts 78°
2026-05-05 01:36 45.04993 -63.64355 5581 ft 307 kts 78°
2026-05-05 01:36 45.05367 -63.61443 5487 ft 293 kts 78°
2026-05-05 01:36 45.05721 -63.58674 5375 ft 280 kts 78°
2026-05-05 01:37 45.06061 -63.56025 5264 ft 268 kts 78°
2026-05-05 01:37 45.06384 -63.53494 5178 ft 256 kts 77°
2026-05-05 01:37 45.06694 -63.51067 5011 ft 248 kts 77°
2026-05-05 01:37 45.06996 -63.48696 4815 ft 243 kts 78°
2026-05-05 01:38 45.07291 -63.46342 4538 ft 244 kts 81°
2026-05-05 01:38 45.07111 -63.44002 4274 ft 236 kts 123°
2026-05-05 01:38 45.06157 -63.42259 4157 ft 225 kts 143°
2026-05-05 01:38 45.05046 -63.40658 3937 ft 230 kts 143°
2026-05-05 01:39 45.03896 -63.39099 3774 ft 223 kts 154°
2026-05-05 01:39 45.02539 -63.38382 3512 ft 200 kts 190°
2026-05-05 01:39 45.01222 -63.38620 3289 ft 184 kts 210°
2026-05-05 01:39 45.00124 -63.39398 3071 ft 172 kts 226°
2026-05-05 01:40 44.99144 -63.40366 2890 ft 170 kts 224°
2026-05-05 01:40 44.98202 -63.41268 2686 ft 158 kts 225°
2026-05-05 01:40 44.97329 -63.42108 2465 ft 145 kts 226°
2026-05-05 01:40 44.96541 -63.42865 2366 ft 130 kts 227°
2026-05-05 01:41 44.95818 -63.43559 2151 ft 126 kts 226°
2026-05-05 01:41 44.95106 -63.44252 2007 ft 122 kts 225°
2026-05-05 01:41 44.94404 -63.44939 1903 ft 125 kts 225°
2026-05-05 01:41 44.93684 -63.45669 1754 ft 130 kts 225°
2026-05-05 01:42 44.92937 -63.46408 1607 ft 133 kts 224°
2026-05-05 01:42 44.92158 -63.47193 1320 ft 141 kts 222°
2026-05-05 01:42 44.91366 -63.47984 1130 ft 137 kts 218°
2026-05-05 01:42 44.90592 -63.48756 949 ft 136 kts 216°
2026-05-05 01:43 44.89825 -63.49534 775 ft 137 kts 216°
2026-05-05 01:43 44.89021 -63.50306 573 ft 145 kts 213°
2026-05-05 01:43 44.88204 -63.51118 460 ft 141 kts 213°
2026-05-05 01:43 44.87486 -63.51812 457 ft 97 kts 213°
2026-05-05 01:44 44.87102 -63.52201 459 ft 49 kts 216°
2026-05-05 01:44 44.86931 -63.52494 459 ft 34 kts 301°
2026-05-05 01:44 44.87095 -63.52529 460 ft 20 kts 24°
2026-05-05 01:44 44.87189 -63.52442 460 ft 10 kts 32°
2026-05-05 01:45 44.87246 -63.52391 460 ft 7 kts 35°
2026-05-05 01:45 44.87266 -63.52370 460 ft 16 kts 36°
2026-05-05 01:45 44.87415 -63.52221 459 ft 34 kts 35°
2026-05-05 01:45 44.87639 -63.51999 459 ft 42 kts 34°
2026-05-05 01:46 44.87899 -63.51746 457 ft 46 kts 35°
2026-05-05 01:46 44.88159 -63.51484 456 ft 45 kts 36°
2026-05-05 01:46 44.88400 -63.51243 455 ft 25 kts 38°
2026-05-05 01:46 44.88552 -63.51237 456 ft 14 kts 320°
2026-05-05 01:47 44.88567 -63.51322 456 ft 0 kts 275°
2026-05-05 01:47 44.88567 -63.51323 456 ft 0 kts 275°